Location: Newark
(12.6500°N, 8.0000°W)
Time: 11:33:56
(UTC+00:00)

Tiangong 2 - Visible Passes

Search period start: 25 March 2019 00:00
Search period end: 04 April 2019 00:00
Orbit: 380 x 389 km, 42.8° (Epoch: 25 March)

Date Brightness Start Highest point End Pass type
(mag) Time Alt. Az. Time Alt. Az. Time Alt. Az.
25 Mar 1.6 19:46:40 10° SSW 19:49:25 40° SSE 19:49:25 40° SSE visible
26 Mar 2.8 05:35:35 10° NNW 05:38:28 32° NE 05:41:22 10° ESE visible
26 Mar 3.6 20:24:15 10° W 20:26:13 21° WNW 20:26:13 21° WNW visible
27 Mar 4.2 04:39:25 14° NE 04:39:25 14° NE 04:40:41 10° ENE visible
27 Mar 1.5 19:24:11 10° SW 19:27:17 63° NW 19:30:22 10° NE visible
28 Mar 0.9 05:16:08 84° SW 05:16:08 84° SW 05:19:18 10° SE visible
28 Mar 4.4 20:04:21 10° NW 20:04:34 10° NW 20:04:48 10° NNW visible
29 Mar 3.3 05:52:53 11° SW 05:53:11 11° SW 05:54:08 10° SSW visible
29 Mar 3.5 19:02:24 10° W 19:04:57 23° NW 19:07:31 10° NNE visible
